User: anonymous   Login
Location: Darmstadt
(49.8706°N, 8.6494°E)
Time: 02:20:46
(UTC+01:00)
Language:

SL-4 R/B - Orbit

View from above orbital plane
View from above orbital plane
View from above satellite
View from above satellite

Ground track
Ground track

The orbit data is extracted from the following two-line orbital elements,

1 39679U 14021B   21016.51401613 -.00000083  00000-0  14274-4 0  9997
2 39679  51.6150 198.4843 0170585 324.3952  34.5732 15.06721997371142
Epoch (UTC): 16 January 2021 12:20:10
Eccentricity: 0.0170585
inclination: 51.6150°
perigee height: 428 km
apogee height: 664 km
right ascension of ascending node: 198.4843°
argument of perigee: 324.3952°
revolutions per day: 15.06721997
mean anomaly at epoch: 34.5732°
orbit number at epoch: 37114

The dashed part of the orbit path shows where the satellite is in the earth's shadow,  

DLR